{"data":{"norad_id":65795,"intl_designator":"2025-218E","name":"STARLINK-35406","alt_names":[],"object_type":"PAYLOAD","status":"ACTIVE","operator":null,"country":"US","launch_date":"2025-09-26","launch_site_code":"AFWTR","launch_vehicle":null,"mission":null,"orbit_class":"UNKNOWN","rcs_meters":null,"size_class":null,"mass_kg":null,"dimensions":null,"purposes":["comms"],"wikipedia_slug":null,"has_3d_model":false,"image_url":null,"decayed_at":null,"tle_current":{"epoch":"2026-05-25T03:43:06.382272Z","epoch_age_seconds":64770,"freshness":"FRESH","line1":"1 65795U 25218E   26145.15493498  .00002025  00000+0  14433-3 0  9997","line2":"2 65795  97.4493   7.9162 0002353  91.9027 268.2470 15.05654781 36477","mean_motion":15.05654781,"eccentricity":0.0002353,"inclination_deg":97.4493,"raan_deg":7.9162,"arg_perigee_deg":91.9027,"mean_anomaly_deg":268.247,"bstar":0.00014433,"rev_number":3647,"period_min":95.639453224703,"perigee_km":547.86641667449,"apogee_km":551.12656099433,"semimajor_km":6927.6334888344,"source":"CELESTRAK","updated_at":"2026-05-25T13:38:20.936479Z"}}}